[[{"header":{"parameterUnit":"m.s-1","parameterCategory":1,"la1":30.2991,"la2":30.254,"lo1":-89.0895,"lo2":-89.0444,"dy":0.0017,"dx":0.0017,"nx":28,"ny":28,"refTime":"2025-09-17T09:00:00:Z","depth":0,"parameterNumber":2,"parameterNumberName":"U-component_of_WINDS"},"data":[0,0,0,0,0,0,0,0,0,0,0,0,0,0,0,0,0,0,0,0,0,0,0,0,0,0,0,0,0,0,0,0,0,0,0,0,0,0,0,0,0,0,0,0,0,0,0,0,0,0,0,0,0,0,0,0,0,0,0.323,0.3229,0,0.3154,0.3153,0.3152,0.3086,0.3086,0.3085,0.3084,0.3005,0.3004,0.3002,0,0,0,0,0,0,0,0,0,0,0,0,0,0.3316,0.3315,0.323,0.3229,0.3228,0.3154,0.3153,0.3152,0.3087,0.3086,0.3085,0.3084,0.3005,0.3004,0.3002,0,0,0,0,0,0,0,0,0,0,0,0,0,0.3263,0.3315,0.323,0.3187,0.3182,0.3154,0.3153,0.3151,0.3087,0.3086,0.3085,0.3084,0.3006,0.3004,0.3002,0.301,0,0,0.2995,0.2994,0,0,0,0,0,0,0,0,0.3267,0.326,0.3194,0.3189,0.3184,0.3128,0.3154,0.3104,0.3087,0.3123,0.3084,0.3083,0.3047,0.3041,0.3029,0.3007,0.3003,0.2995,0.2994,0.2993,0.2992,0,0,0,0,0,0,0,0.327,0.3263,0.32,0.3193,0.3187,0.317,0.3161,0.3144,0.3092,0.312,0.3115,0.3107,0.3044,0.3032,0.3027,0.3002,0.2995,0.2993,0.2992,0.2991,0.298,0.2981,0,0,0,0,0,0,0.3281,0.3267,0.3202,0.3197,0.3224,0.3169,0.316,0.3147,0.3092,0.3082,0.3108,0.3104,0.3036,0.303,0.3024,0.3029,0.2993,0.2991,0.299,0.2979,0.2981,0.2982,0,0,0,0,0,0,0.3283,0.3276,0.3205,0.3231,0.322,0.3169,0.3156,0.3147,0.3134,0.3083,0.3073,0.3105,0.3035,0.3027,0.3014,0.3025,0.299,0.2988,0.2978,0.298,0.2981,0.3039,0,0,0,0,0,0,0.3286,0.3277,0.328,0.3231,0.3219,0.3197,0.3157,0.3146,0.3131,0.3125,0.3078,0.3069,0.3033,0.3017,0.3012,0.3021,0.2986,0.2977,0.2979,0.2981,0.3036,0.3043,0.3048,0,0,0,0,0,0.3289,0.33,0.3281,0.3273,0.3222,0.3198,0.3191,0.3151,0.3132,0.3134,0.3101,0.307,0.3025,0.3017,0.301,0.3019,0.2976,0.2978,0.2981,0.3034,0.3041,0.3048,0,0,0,0,0,0,0.3351,0.3293,0.3271,0.3266,0.3238,0.3187,0.3189,0.3161,0.3136,0.3132,0.3082,0.3072,0.3064,0.304,0.3032,0.3023,0.2996,0.2997,0.3039,0.3046,0.3052,0.3057,0.2984,0,0,0,0,0,0.3365,0.335,0.33,0.33,0.3287,0.3241,0.3228,0.32,0.3168,0.3155,0.3121,0.3091,0.307,0.3057,0.3035,0.3033,0.3021,0.3036,0.3042,0.3047,0.3048,0.3043,0.3049,0.2989,0.2989,0.2989,0,0,0.3392,0.3358,0.3352,0.3312,0.3286,0.3271,0.3231,0.3217,0.3205,0.3153,0.3138,0.3112,0.3075,0.3067,0.3062,0.3047,0.3062,0.305,0.3054,0.3052,0.3046,0.3052,0.3057,0.2991,0.2991,0.299,0,0,0.3433,0.3407,0.3403,0.3378,0.334,0.3309,0.3309,0.3262,0.3243,0.3227,0.3187,0.3172,0.3137,0.3112,0.3094,0.3125,0.3095,0.312,0.315,0.3146,0.3151,0.3155,0.3164,0.3168,0.3121,0.3121,0.3121,0,0.3471,0.3447,0.3405,0.3393,0.3376,0.3329,0.3324,0.3302,0.3259,0.3248,0.3232,0.3186,0.3158,0.3142,0.315,0.3138,0.3134,0.3124,0.3154,0.3157,0.316,0.3169,0.3172,0.3124,0.3124,0.3124,0.3123,0,0.3495,0.348,0.3482,0.3441,0.3424,0.3416,0.3372,0.336,0.3333,0.3303,0.3287,0.3251,0.322,0.3215,0.3188,0.3195,0.3187,0.3164,0.3135,0.317,0.3177,0.3179,0.3129,0.3128,0.3127,0.3126,0,0,0.3573,0.3508,0.351,0.349,0.3444,0.343,0.342,0.339,0.338,0.3352,0.334,0.3312,0.3289,0.3269,0.3239,0.3236,0.3261,0.3213,0.3211,0.3221,0.3264,0.3281,0.3285,0.3241,0.3241,0.3242,0.3266,0,0.3605,0.3584,0.3545,0.3536,0.352,0.3474,0.3465,0.3435,0.3407,0.3389,0.3358,0.3337,0.331,0.3298,0.3293,0.3259,0.3268,0.3257,0.3228,0.3228,0.3238,0.3289,0.3307,0.3332,0.3269,0.3269,0.327,0,0.364,0.3614,0.3603,0.3557,0.3549,0.3541,0.351,0.3493,0.3458,0.3438,0.3416,0.3383,0.3368,0.3344,0.3321,0.3315,0.3301,0.3282,0.3282,0.3277,0.325,0.3283,0.3339,0.3342,0.3274,0.3273,0.3273,0,0.3695,0.3658,0.3646,0.363,0.3577,0.3572,0.355,0.3514,0.3498,0.347,0.3459,0.343,0.3414,0.3392,0.3352,0.3338,0.3333,0.3306,0.3315,0.3316,0.3315,0.3315,0.3367,0.3309,0.3309,0.3309,0.3309,0,0.3734,0.3728,0.3669,0.3662,0.3654,0.361,0.3603,0.3576,0.3544,0.353,0.3489,0.3477,0.3425,0.3406,0.3375,0.336,0.3353,0.3336,0.3327,0.3338,0.334,0.3327,0.3324,0.331,0.331,0.3309,0.3309,0,0.3793,0.3754,0.3738,0.3689,0.3676,0.3672,0.363,0.362,0.359,0.3572,0.3565,0.3518,0.3493,0.3451,0.3414,0.3393,0.3384,0.337,0.3396,0.339,0.3401,0.34,0.3445,0.3448,0.339,0.3391,0.3391,0,0.382,0.3815,0.3765,0.3753,0.3732,0.3712,0.3696,0.3652,0.3636,0.3595,0.359,0.3562,0.3538,0.35,0.3461,0.3433,0.3417,0.3435,0.3412,0.3423,0.3415,0.3415,0.3413,0.344,0.3441,0.3441,0.3442,0,0.3871,0.3851,0.3829,0.38,0.3781,0.3756,0.3729,0.3721,0.367,0.3654,0.3629,0.361,0.3572,0.3544,0.351,0.3485,0.3455,0.345,0.345,0.346,0.3474,0.3465,0.3408,0.3448,0.3448,0.3447,0.3447,0.3447,0.3913,0.3905,0.3869,0.3845,0.382,0.3795,0.3784,0.3752,0.373,0.3696,0.3671,0.3647,0.3611,0.3562,0.3539,0.3519,0.3505,0.3506,0.3505,0.3506,0.3509,0.3479,0.3512,0.3512,0.3512,0.3512,0.3512,0,0.396,0.3934,0.3913,0.3876,0.3857,0.3831,0.3799,0.3784,0.3764,0.3733,0.3709,0.3679,0.3652,0.3611,0.3581,0.3572,0.3557,0.3565,0.3565,0.3559,0.3524,0.3526,0.3578,0.3578,0.3578,0.3578,0.3578,0.3578,0.3981,0.3967,0.3943,0.3916,0.3889,0.3866,0.385,0.3826,0.3801,0.3769,0.3747,0.3721,0.3685,0.3652,0.3625,0.3614,0.3603,0.3616,0.36,0.3568,0.3562,0.3556,0.3557,0.3615,0.3615,0.3636,0.3636,0.3636]},{"header":{"parameterUnit":"m.s-1","parameterCategory":1,"la1":30.2991,"la2":30.254,"lo1":-89.0895,"lo2":-89.0444,"dy":0.0017,"dx":0.0017,"nx":28,"ny":28,"refTime":"2025-09-17T09:00:00:Z","depth":0,"parameterNumber":3,"parameterNumberName":"V-component_of_WINDS"},"data":[0,0,0,0,0,0,0,0,0,0,0,0,0,0,0,0,0,0,0,0,0,0,0,0,0,0,0,0,0,0,0,0,0,0,0,0,0,0,0,0,0,0,0,0,0,0,0,0,0,0,0,0,0,0,0,0,0,0,-0.6938,-0.6939,0,-0.6982,-0.6982,-0.6983,-0.7021,-0.7021,-0.7022,-0.7022,-0.7067,-0.7068,-0.7068,0,0,0,0,0,0,0,0,0,0,0,0,0,-0.6891,-0.6891,-0.6938,-0.6939,-0.6939,-0.6982,-0.6982,-0.6983,-0.7021,-0.7021,-0.7022,-0.7022,-0.7067,-0.7068,-0.7069,0,0,0,0,0,0,0,0,0,0,0,0,0,-0.692,-0.6891,-0.6938,-0.6963,-0.6966,-0.6981,-0.6982,-0.6983,-0.7021,-0.7021,-0.7022,-0.7022,-0.7066,-0.7067,-0.7069,-0.7063,0,0,-0.7072,-0.7073,0,0,0,0,0,0,0,0,-0.6919,-0.6922,-0.6959,-0.6962,-0.6965,-0.6996,-0.6982,-0.701,-0.702,-0.7,-0.7022,-0.7023,-0.7043,-0.7046,-0.7053,-0.7065,-0.7067,-0.7072,-0.7073,-0.7074,-0.7074,0,0,0,0,0,0,0,-0.6916,-0.692,-0.6956,-0.696,-0.6963,-0.6973,-0.6978,-0.6987,-0.7017,-0.7002,-0.7005,-0.7009,-0.7045,-0.7052,-0.7054,-0.7067,-0.7072,-0.7073,-0.7074,-0.7075,-0.7079,-0.7079,0,0,0,0,0,0,-0.691,-0.6918,-0.6954,-0.6957,-0.6943,-0.6973,-0.6979,-0.6986,-0.7017,-0.7023,-0.7009,-0.7011,-0.7049,-0.7053,-0.7056,-0.7052,-0.7074,-0.7075,-0.7075,-0.708,-0.7079,-0.7078,0,0,0,0,0,0,-0.6909,-0.6913,-0.6952,-0.6938,-0.6944,-0.6974,-0.6981,-0.6986,-0.6993,-0.7022,-0.7028,-0.701,-0.705,-0.7054,-0.7061,-0.7054,-0.7075,-0.7076,-0.708,-0.7079,-0.7079,-0.7044,0,0,0,0,0,0,-0.6908,-0.6912,-0.691,-0.6938,-0.6945,-0.6956,-0.698,-0.6986,-0.6995,-0.6998,-0.7025,-0.703,-0.7051,-0.7059,-0.7062,-0.7056,-0.7077,-0.7081,-0.708,-0.7079,-0.7046,-0.7042,-0.7039,0,0,0,0,0,-0.6906,-0.6898,-0.691,-0.6914,-0.6942,-0.6956,-0.696,-0.6983,-0.6994,-0.6992,-0.7012,-0.7029,-0.7055,-0.706,-0.7063,-0.7058,-0.7082,-0.708,-0.7079,-0.7048,-0.7043,-0.7039,0,0,0,0,0,0,-0.6868,-0.6902,-0.6915,-0.6916,-0.6933,-0.6962,-0.696,-0.6977,-0.6991,-0.6993,-0.7022,-0.7028,-0.7032,-0.7046,-0.7051,-0.7055,-0.7071,-0.707,-0.7045,-0.7041,-0.7038,-0.7034,-0.7078,0,0,0,0,0,-0.686,-0.6868,-0.6897,-0.6896,-0.6903,-0.693,-0.6937,-0.6954,-0.6972,-0.6979,-0.6999,-0.7016,-0.7029,-0.7036,-0.7048,-0.7048,-0.7056,-0.7047,-0.7043,-0.704,-0.7039,-0.7042,-0.7038,-0.7074,-0.7074,-0.7074,0,0,-0.6843,-0.6863,-0.6866,-0.6889,-0.6903,-0.6912,-0.6936,-0.6943,-0.695,-0.6981,-0.6989,-0.7004,-0.7025,-0.7029,-0.7032,-0.7041,-0.7031,-0.7038,-0.7036,-0.7036,-0.704,-0.7037,-0.7034,-0.7073,-0.7073,-0.7073,0,0,-0.6817,-0.6832,-0.6833,-0.6848,-0.687,-0.6888,-0.6889,-0.6916,-0.6927,-0.6935,-0.6959,-0.6968,-0.6988,-0.7002,-0.7012,-0.6994,-0.7011,-0.6997,-0.6979,-0.6981,-0.6978,-0.6976,-0.697,-0.6968,-0.6996,-0.6996,-0.6996,0,-0.6794,-0.6806,-0.6832,-0.6838,-0.6848,-0.6876,-0.6878,-0.6891,-0.6916,-0.6923,-0.6932,-0.6959,-0.6975,-0.6984,-0.698,-0.6986,-0.6989,-0.6994,-0.6976,-0.6974,-0.6973,-0.6968,-0.6965,-0.6994,-0.6995,-0.6995,-0.6995,0,-0.6777,-0.6786,-0.6784,-0.6808,-0.6817,-0.6821,-0.6848,-0.6855,-0.6871,-0.6889,-0.6898,-0.6919,-0.6937,-0.6941,-0.6956,-0.6952,-0.6957,-0.6971,-0.6988,-0.6967,-0.6963,-0.6961,-0.6992,-0.6992,-0.6993,-0.6993,0,0,-0.6728,-0.6766,-0.6765,-0.6777,-0.6804,-0.6812,-0.6818,-0.6836,-0.6842,-0.6858,-0.6865,-0.6882,-0.6896,-0.6907,-0.6925,-0.6927,-0.6913,-0.6941,-0.6942,-0.6936,-0.691,-0.69,-0.6897,-0.6924,-0.6924,-0.6924,-0.6909,0,-0.6706,-0.6718,-0.6742,-0.6746,-0.6755,-0.6784,-0.6789,-0.6807,-0.6824,-0.6835,-0.6854,-0.6866,-0.6882,-0.689,-0.6893,-0.6913,-0.6908,-0.6915,-0.6932,-0.6932,-0.6925,-0.6895,-0.6883,-0.6868,-0.6907,-0.6907,-0.6907,0,-0.6683,-0.6698,-0.6704,-0.6732,-0.6737,-0.6741,-0.676,-0.677,-0.6791,-0.6804,-0.6817,-0.6837,-0.6846,-0.6862,-0.6875,-0.6879,-0.6888,-0.6899,-0.6899,-0.6902,-0.6918,-0.6897,-0.6864,-0.6862,-0.6904,-0.6905,-0.6905,0,-0.6647,-0.6669,-0.6676,-0.6685,-0.6718,-0.672,-0.6734,-0.6756,-0.6766,-0.6783,-0.679,-0.6808,-0.6817,-0.6831,-0.6856,-0.6865,-0.6868,-0.6885,-0.6879,-0.6878,-0.6878,-0.6878,-0.6846,-0.6883,-0.6883,-0.6883,-0.6883,0,-0.6621,-0.6624,-0.6661,-0.6665,-0.6669,-0.6697,-0.67,-0.6717,-0.6737,-0.6745,-0.6771,-0.6778,-0.6811,-0.6822,-0.6842,-0.6851,-0.6855,-0.6866,-0.6872,-0.6864,-0.6863,-0.687,-0.6872,-0.6882,-0.6882,-0.6883,-0.6883,0,-0.6582,-0.6607,-0.6616,-0.6646,-0.6654,-0.6656,-0.6683,-0.6688,-0.6708,-0.6718,-0.6722,-0.6752,-0.6768,-0.6794,-0.6817,-0.683,-0.6836,-0.6845,-0.6829,-0.6832,-0.6825,-0.6826,-0.6797,-0.6795,-0.6832,-0.6832,-0.6832,0,-0.6564,-0.6567,-0.6598,-0.6605,-0.6618,-0.663,-0.664,-0.6668,-0.6678,-0.6704,-0.6706,-0.6724,-0.6739,-0.6763,-0.6787,-0.6805,-0.6815,-0.6804,-0.6818,-0.6811,-0.6816,-0.6816,-0.6817,-0.6801,-0.68,-0.68,-0.6799,0,-0.653,-0.6542,-0.6555,-0.6574,-0.6585,-0.6601,-0.6618,-0.6623,-0.6655,-0.6665,-0.6681,-0.6693,-0.6717,-0.6734,-0.6756,-0.6772,-0.6791,-0.6795,-0.6795,-0.6787,-0.6778,-0.6784,-0.682,-0.6795,-0.6796,-0.6796,-0.6796,-0.6796,-0.6501,-0.6505,-0.6528,-0.6543,-0.6559,-0.6574,-0.6582,-0.6602,-0.6616,-0.6637,-0.6653,-0.6668,-0.6692,-0.6723,-0.6738,-0.6751,-0.676,-0.6759,-0.6759,-0.6759,-0.6756,-0.6776,-0.6755,-0.6755,-0.6755,-0.6755,-0.6756,0,-0.6469,-0.6485,-0.6498,-0.6522,-0.6534,-0.6551,-0.6571,-0.658,-0.6593,-0.6613,-0.6628,-0.6647,-0.6665,-0.6691,-0.6711,-0.6716,-0.6726,-0.6721,-0.6721,-0.6725,-0.6747,-0.6745,-0.6713,-0.6713,-0.6713,-0.6713,-0.6713,-0.6713,-0.6453,-0.6462,-0.6477,-0.6494,-0.6511,-0.6526,-0.6536,-0.6551,-0.6568,-0.6588,-0.6603,-0.662,-0.6643,-0.6665,-0.6682,-0.669,-0.6696,-0.6688,-0.6698,-0.6719,-0.6723,-0.6726,-0.6725,-0.6689,-0.6689,-0.6675,-0.6675,-0.6675]}]]